Location: Dumpton Point
(51.3500°N, 1.4433°E)
Time: 23:35:11
(UTC+00:00)

ATLAS 5 CENTAUR R/B - Pass Details

Date: 09 April 2020
Orbit: 543 x 1116 km, 63.4° (Epoch: 01 May)

Event Time Altitude Azimuth Distance (km) Brightness Sun altitude
Rises 23:30:00 0° 296° (WNW) 2,968 5.5 -30.4°
Reaches altitude 10° 23:32:40 10° 312° (NW) 2,145 4.9 -30.4°
Maximum altitude 23:36:28 22° 3° (N) 1,618 4.3 -30.5°
Drops below altitude 10° 23:40:43 10° 53° (NE) 2,433 4.9 -30.5°
Sets 23:43:58 0° 68° (ENE) 3,487 5.6 -30.6°
